Deptford, New Jersey, United States
Lat: 39.83N, Lon: 75.13W
Wx Zone: NJZ017
Local Info
Past Weather Observations for Tuesday, March 24, 2015

NOTE: This archive is for the closest National Weather Service station to Deptford. Information may differ from the station used for current weather conditions.

Click here for Long-term Archive

Time Weather Temperature Dewpoint Humidity Pressure Winds Precip Visibility
23:54
Clear
34°F / 1°C 19°F / -7°C 56% 30.42 in
(1030 mb)
SSW 3.5 mph
(SSW 6 kph)
- 10SM
22:54
Clear
32°F / 0°C 19°F / -7°C 60% 30.42 in
(1030 mb)
SW 3.5 mph
(SW 6 kph)
- 10SM
21:54
Clear
36°F / 2°C 18°F / -8°C 48% 30.39 in
(1029 mb)
SW 3.5 mph
(SW 6 kph)
- 10SM
20:54
Clear
34°F / 1°C 18°F / -8°C 51% 30.39 in
(1029 mb)
Calm - 10SM
19:54
Clear
36°F / 2°C 16°F / -9°C 44% 30.39 in
(1029 mb)
SSE 6.9 mph
(SSE 11 kph)
- 10SM
19:08
Clear
37°F / 3°C 16°F / -9°C 41% 30.39 in
(1029 mb)
S 5.8 mph
(S 9 kph)
- 10SM
18:54
Clear
37°F / 3°C 16°F / -9°C 41% 30.36 in
(1028 mb)
SSE 5.8 mph
(SSE 9 kph)
- 10SM
17:54
Partly Cloudy
39°F / 4°C 12°F / -11°C 33% 30.36 in
(1028 mb)
SW 6.9 mph
(SW 11 kph)
- 10SM
16:54
Partly Cloudy
39°F / 4°C 10°F / -12°C 30% 30.36 in
(1028 mb)
SW 6.9 mph
(SW 11 kph)
- 10SM
15:54
Partly Cloudy
39°F / 4°C 9°F / -13°C 28% 30.33 in
(1027 mb)
SSW 8.1 mph
(SSW 13 kph)
- 10SM
14:54
Mostly Cloudy
37°F / 3°C 9°F / -13°C 30% 30.36 in
(1028 mb)
NW 6.9 mph
(NW 11 kph)
- 10SM
13:54
Overcast
36°F / 2°C 9°F / -13°C 32% 30.36 in
(1028 mb)
SSW 6.9 mph
(SSW 11 kph)
- 10SM
12:54
Overcast
36°F / 2°C 9°F / -13°C 32% 30.36 in
(1028 mb)
Variable 4.6 mph
(Variable 7 kph)
- 10SM
11:54
Overcast
36°F / 2°C 9°F / -13°C 32% 30.36 in
(1028 mb)
Calm - 10SM
10:54
Overcast
34°F / 1°C 7°F / -14°C 32% 30.36 in
(1028 mb)
Calm - 10SM
09:54
Overcast
34°F / 1°C 7°F / -14°C 32% 30.39 in
(1029 mb)
Calm - 10SM
08:54
Overcast
32°F / 0°C 7°F / -14°C 34% 30.36 in
(1028 mb)
ENE 5.8 mph
(ENE 9 kph)
- 10SM
07:54
Mostly Cloudy
32°F / 0°C 7°F / -14°C 34% 30.36 in
(1028 mb)
ENE 6.9 mph
(ENE 11 kph)
- 10SM
06:54
Mostly Cloudy
32°F / 0°C 7°F / -14°C 34% 30.33 in
(1027 mb)
NNE 4.6 mph
(NNE 7 kph)
- 10SM
05:54
Mostly Cloudy
30°F / -1°C 7°F / -14°C 37% 30.33 in
(1027 mb)
N 8.1 mph
(N 13 kph)
- 10SM
04:54
Mostly Cloudy
32°F / 0°C 5°F / -15°C 32% 30.3 in
(1026 mb)
N 8.1 mph
(N 13 kph)
- 10SM
03:54
Overcast
32°F / 0°C 3°F / -16°C 29% 30.3 in
(1026 mb)
N 10.4 mph
(N 17 kph)
- 10SM
02:54
Overcast
34°F / 1°C 3°F / -16°C 27% 30.3 in
(1026 mb)
N 15 mph
(N 24 kph)
- 10SM
01:54
Overcast
34°F / 1°C 3°F / -16°C 27% 30.3 in
(1026 mb)
N 12.7 mph
(N 20 kph)
- 10SM
00:54
Overcast
36°F / 2°C 7°F / -14°C 30% 30.3 in
(1026 mb)
N 10.4 mph
(N 17 kph)
- 10SM
Time Weather Temperature Dewpoint Humidity Pressure Winds Precip Visibility


Weather for websites

WeatherForYou.com, LLC is not responsible for any damages or problems caused by this service. Current weather conditions are obtained from the closest station including government and personal stations which may have varying degrees of accuracy. Weather forecasts are derived from the NOAA NDFD. Like all things, this site belongs to Jesus Christ... He just trusts me to maintain it. If you have any questions or comments email webmaster@weatherforyou.com

Copyright © 2015, WeatherForYou.com LLC. All rights reserved.